Location: Altamira
(10.5079°N, 66.8544°W)
Time: 14:50:20
(UTC+00:00)

CORIOLIS - Visible Passes

Search period start: 03 July 2022 00:00
Search period end: 13 July 2022 00:00
Orbit: 817 x 839 km, 98.7° (Epoch: 02 July)

Date Brightness Start Highest point End Pass type
(mag) Time Alt. Az. Time Alt. Az. Time Alt. Az.
04 Jul 6.9 09:30:49 10° ENE 09:33:48 15° E 09:36:48 10° SE visible
05 Jul 7.1 23:40:31 10° WSW 23:42:17 12° W 23:44:05 10° W visible
06 Jul 6.7 23:20:07 10° SSW 23:23:55 20° W 23:27:43 10° NW visible
09 Jul 6.8 09:38:24 10° ENE 09:42:09 19° E 09:45:53 10° SE visible
10 Jul 7.2 09:22:19 10° E 09:23:46 11° E 09:25:14 10° ESE visible
11 Jul 6.8 23:29:07 10° SW 23:32:14 16° W 23:35:21 10° WNW visible
12 Jul 6.4 23:09:30 10° SSW 23:13:51 26° W 23:18:14 10° NW visible
